This demonstration page uses our WeatherBlox Daily Observations layout. Learn more.

Left ArrowRight Arrow

Hourly Observations for June 13, 2019

Temp ( °F °C ) Dew Point ( °F °C ) Humidity (%) Winds ( mph kmh ) Pressure ( in mb ) Visibility ( mi km ) Precip ( " mm )
12:53 am 00:53 Clear 59 15 45 7.2 60 60 WSW 7 11 29.83 1010 10 16 0.00 0.00
1:53 am 01:53 Clear 55 12.8 45 7.2 69 69 W 3 6 29.83 1010 10 16 0.00 0.00
2:53 am 02:53 Clear 53 11.7 45 7.2 74 74 Calm 29.81 1010 10 16 0.00 0.00
3:53 am 03:53 Clear 52 11.1 45 7.2 77 77 W 3 6 29.81 1009 10 16 0.00 0.00
4:53 am 04:53 Clear 51 10.6 45 7.2 80 80 Calm 29.81 1009 10 16 0.00 0.00
5:53 am 05:53 Sunny 52 11.1 45 7.2 77 77 Calm 29.80 1009 10 16 0.00 0.00
6:53 am 06:53 Sunny 57 13.9 48 8.9 72 72 SW 6 9 29.80 1009 10 16 0.00 0.00
7:53 am 07:53 Sunny 63 17.2 49 9.4 60 60 SW 7 11 29.79 1009 10 16 0.00 0.00
8:53 am 08:53 Sunny 69 20.6 50 10 51 51 SW 5 7 29.77 1008 10 16 0.00 0.00
9:53 am 09:53 Sunny 78 25.6 51 10.6 39 39 SW 8 13 29.74 1007 10 16 0.00 0.00
10:53 am 10:53 Sunny 82 27.8 50 10 33 33 SW 12 19 29.72 1007 10 16 0.00 0.00
11:53 am 11:53 Sunny 82 27.8 49 9.4 32 32 SW 13 20 29.71 1006 10 16 0.00 0.00
12:53 pm 12:53 Sunny 83 28.3 47 8.3 28 28 SW 14 22 29.70 1006 10 16 0.00 0.00
1:53 pm 13:53 Sunny 85 29.4 46 7.8 26 26 SW 5 7 29.68 1005 10 16 0.00 0.00
2:53 pm 14:53 Mostly Sunny 88 31.1 47 8.3 24 24 WSW 12 19 29.65 1004 10 16 0.00 0.00
3:53 pm 15:53 Sunny 90 32.2 44 6.7 20 20 WSW 18 30 29.64 1004 10 16 0.00 0.00
4:53 pm 16:53 Sunny 89 31.7 40 4.4 18 18 W 9 15 29.62 1003 10 16 0.00 0.00
5:53 pm 17:53 Mostly Sunny 90 32.2 42 5.6 19 19 W 10 17 29.60 1002 10 16 0.00 0.00
6:53 pm 18:53 Mostly Cloudy 85 29.4 46 7.8 26 26 W 17 28 29.58 1002 10 16 0.00 0.00
7:05 pm 19:05 Partly Cloudy with Nearby Thunderstorms 85 29.4 45 7.2 25 25 WSW 15 24 29.46 998 10 16 0.00 0.00
7:29 pm 19:29 Mostly Cloudy with Light Rain 85 29.4 49 9.4 29 29 W 10 17 29.46 998 10 16 0.00 0.03
7:53 pm 19:53 Mostly Cloudy 84 28.9 44 6.7 25 25 WSW 13 20 29.58 1002 10 16 0.00 0.03
8:53 pm 20:53 Sunny 80 26.7 46 7.8 30 30 W 13 20 29.59 1002 10 16 0.00 0.00
9:53 pm 21:53 Mostly Clear 71 21.7 46 7.8 41 41 W 9 15 29.58 1002 10 16 0.00 0.00
10:53 pm 22:53 Clear 69 20.6 46 7.8 44 44 W 8 13 29.60 1002 10 16 0.00 0.00
11:21 pm 23:21 Mostly Clear 70 21 48 9 46 46 N 21 33 29.57 1002 10 16 0.00 0.00
11:53 pm 23:53 Clear 66 18.9 50 10 56 56 NNE 18 30 29.62 1003 10 16 0.00 0.00

Powered by AerisWeather